Location: Unspecified
(33.6682°S, 0.0000°E)
Time: 08:53:29
(UTC+00:00)

Tiros 1 despin weight - Pass Details

Date: 23 June 2019
Orbit: 594 x 642 km, 48.2° (Epoch: 17 July)

Event Time Altitude Azimuth Distance (km) Brightness Sun altitude
Rises 13:50:32 0° 233° (SW) 2,962 ? 27.4°
Reaches altitude 10° 13:54:00 10° 207° (SSW) 2,057 ? 27.0°
Maximum altitude 13:56:29 14° 175° (S) 1,806 ? 26.8°
Drops below altitude 10° 13:58:58 10° 143° (SE) 2,058 ? 26.5°
Sets 14:02:26 0° 118° (ESE) 2,965 ? 26.1°
